Home > Weather > Melk > Past weeks

Flag for Austria Past Weather in Melk, Lower Austria, Austria — Yesterday and Last 2 Weeks

Now
92 °F

Hot.


Feels Like: 94 °F
Forecast: 62 / 77 °F
Wind: 3 mph from Southeast

Location: Amstetten

Current Time: Jun 25, 2016 at 6:02:36 PM

Latest Report: Jun 25, 2016 at 5:00 PM


Visibility: N/A

Pressure: 29.72 "Hg

Humidity: 38%

Dew Point: 64 °F

Location of MelkLocation

Past Weather in Melk — Graph

°F

Melk Temperature Yesterday

Maximum temperature yesterday: 91 °F (at 5:00 PM)
Minimum temperature yesterday: 66 °F (at 6:00 AM)
Average temperature yesterday: 79 °F

High & Low Weather Summary for the Past Weeks

 TemperatureHumidityPressure
High93 °F (Jun 25, 4:00 PM)100% (Jun 20, 11:00 PM)30.29 "Hg (Jun 20, 11:00 PM)
Low52 °F (Jun 21, 6:00 AM)36% (Jun 25, 4:00 PM)29.47 "Hg (Jun 16, 7:00 PM)
Average66 °F76%29.91 "Hg
* Reported Jun 10 5:00 PM — Jun 25 5:00 PM, Melk, Weather by CustomWeather, © 2016

Note: Actual official high and low records may vary slightly from our data, if they occured in-between our weather recording intervals... More about our weather records

Advertising

Melk Weather History for the Previous 24 Hours

Scroll right to see more
 ConditionsComfort  
Time TempWeatherWind HumidityBarometerVisibility
5:00 PM
Sat, Jun 25
92 °FHot.3 mph38%29.72 "HgN/A
4:00 PM93 °FHot.3 mph36%29.73 "HgN/A
3:00 PM92 °FHot.3 mph38%29.74 "HgN/A
2:00 PM90 °FHot.2 mph46%29.77 "HgN/A
1:00 PM89 °FHot.3 mph49%29.80 "HgN/A
12:00 PM87 °FWarm.2 mph55%29.83 "HgN/A
11:00 AM83 °FWarm.2 mph64%29.84 "HgN/A
10:00 AM79 °FWarm.2 mph70%29.85 "HgN/A
9:00 AM75 °FMild.1 mph77%29.87 "HgN/A
8:00 AM74 °FMild.2 mph81%29.88 "HgN/A
7:00 AM71 °FMild.1 mph87%29.88 "HgN/A
6:00 AM70 °FMild.1 mph91%29.88 "HgN/A
5:00 AM70 °FMild.2 mph89%29.88 "HgN/A
4:00 AM70 °FMild.2 mph92%29.89 "HgN/A
3:00 AM71 °FMild.1 mph88%29.90 "HgN/A
2:00 AM73 °FMild.1 mph83%29.91 "HgN/A
1:00 AM74 °FMild.1 mph82%29.91 "HgN/A
12:00 AM73 °FMild.1 mph80%29.93 "HgN/A
10:00 PM
Fri, Jun 24
80 °FWarm.1 mph68%29.91 "HgN/A
9:00 PM82 °FWarm.1 mph71%29.91 "HgN/A
8:00 PM87 °FWarm.1 mph55%29.89 "HgN/A
7:00 PM90 °FHot.2 mph43%29.89 "HgN/A
6:00 PM91 °FHot.1 mph45%29.90 "HgN/A
Weather by CustomWeather, © 2016

See weather overviewHow to use our weather pages